Weather History for Opa Locka, FL

Change the Weather History Date:

Saturday, April 20, 2013

  Actual Average Record
Temperature  
Mean Temperature 80 °F -  
Max Temperature 91 °F 82 °F 91 °F (2006)
Min Temperature 71 °F 67 °F 59 °F (1950)
Cooling Degree Days 15    
Growing Degree Days 30 (Base 50)    
Moisture  
Dew Point 72 °F    
Average Humidity 83    
Maximum Humidity 100    
Minimum Humidity 43    
Precipitation  
Precipitation 0.89 in - - ()
Sea Level Pressure  
Sea Level Pressure 30.02 in    
Wind  
Wind Speed 10 mph (South)    
Max Wind Speed 21 mph    
Max Gust Speed 28 mph    
Visibility 9 miles    
Events Rain , Thunderstorm    
Averages and records for this station are not official NWS values.
T = Trace of Precipitation, MM = Missing Value Source: NWS Daily Summary

Daily Weather History Graph

Daily Weather History Graph

Search for Another Location

Airport:

Trip Planner

Search our weather history database for the weather conditions in past years. The results will help you decide how hot, cold, wet, or windy it might be!

Date:

Astronomy

Apr. 20, 2013 Rise Set
Actual Time 6:53 AM EDT 7:47 PM EDT
Civil Twilight 6:29 AM EDT 8:10 PM EDT
Nautical Twilight 6:01 AM EDT 8:38 PM EDT
Astronomical Twilight 5:32 AM EDT 9:07 PM EDT
Moon 2:58 PM EDT (4/20) 3:09 AM EDT (4/20)
Length of Visible Light 13h 41m
Length of Day
12h 53m
Waxing Gibbous, 71% of the Moon is Illuminated
Apr 20
Waxing Gibbous
Apr 25
Full
May 2
Last Quarter
May 9
New
May 18
First Quarter

Hourly Weather History & Observations

Time (EDT) Temp. Heat Index Dew Point Humidity Pressure Visibility Wind Dir Wind Speed Gust Speed Precip Events Conditions
12:53 AM 80.1 °F 84.2 °F 73.0 °F 79% 30.02 in 10.0 mi SSE 10.4 mph - N/A   Scattered Clouds
1:05 AM 78.8 °F - 71.6 °F 78% 30.02 in 10.0 mi SE 16.1 mph 25.3 mph 0.00 in Rain Light Rain
1:12 AM 77.0 °F - 73.4 °F 89% 30.02 in 10.0 mi SE 11.5 mph - 0.01 in Rain Rain
1:36 AM 78.8 °F - 75.2 °F 89% 30.01 in 10.0 mi South 4.6 mph - 0.01 in   Overcast
1:53 AM 79.0 °F - 73.9 °F 84% 30.01 in 10.0 mi South 10.4 mph - 0.01 in   Overcast
2:26 AM 78.8 °F - 73.4 °F 83% 29.99 in 10.0 mi South 10.4 mph - N/A   Mostly Cloudy
2:53 AM 79.0 °F - 73.0 °F 82% 29.99 in 10.0 mi South 12.7 mph - N/A   Mostly Cloudy
3:09 AM 78.8 °F - 73.4 °F 83% 29.99 in 10.0 mi Variable 6.9 mph - 0.01 in Rain Light Rain
3:53 AM 78.1 °F - 73.0 °F 84% 29.99 in 10.0 mi South 9.2 mph - 0.03 in   Scattered Clouds
4:53 AM 77.0 °F - 73.0 °F 88% 29.99 in 10.0 mi South 6.9 mph - N/A   Clear
5:12 AM 77.0 °F - 73.4 °F 89% 29.99 in 10.0 mi South 5.8 mph - N/A   Mostly Cloudy
5:42 AM 75.2 °F - 73.4 °F 94% 29.99 in 10.0 mi South 4.6 mph - N/A   Scattered Clouds
5:53 AM 75.9 °F - 73.0 °F 91% 29.99 in 10.0 mi SSW 4.6 mph - N/A   Clear
6:53 AM 75.9 °F - 73.0 °F 91% 30.00 in 10.0 mi Calm Calm - N/A   Partly Cloudy
7:53 AM 78.1 °F - 73.9 °F 87% 30.01 in 10.0 mi SSW 4.6 mph - N/A   Clear
8:53 AM 80.1 °F 84.2 °F 73.0 °F 79% 30.03 in 10.0 mi WSW 9.2 mph - N/A   Mostly Cloudy
9:00 AM 78.8 °F - 73.4 °F 83% 30.02 in 10.0 mi SW 9.2 mph - N/A   Scattered Clouds
9:53 AM 82.0 °F 87.4 °F 73.0 °F 74% 30.03 in 10.0 mi SW 10.4 mph - N/A   Scattered Clouds
10:53 AM 84.9 °F 90.7 °F 72.0 °F 65% 30.04 in 10.0 mi Variable 5.8 mph - N/A   Scattered Clouds
11:53 AM 86.0 °F 90.7 °F 70.0 °F 59% 30.05 in 10.0 mi Variable 3.5 mph - N/A   Scattered Clouds
12:53 PM 89.1 °F 90.3 °F 64.0 °F 43% 30.03 in 10.0 mi Variable 5.8 mph - N/A   Mostly Cloudy
1:53 PM 87.1 °F 94.5 °F 73.0 °F 63% 30.01 in 10.0 mi SSE 8.1 mph 16.1 mph N/A   Partly Cloudy
2:53 PM 87.1 °F 95.4 °F 73.9 °F 65% 29.99 in 10.0 mi SSE 10.4 mph - N/A   Scattered Clouds
3:53 PM 86.0 °F 91.5 °F 71.1 °F 61% 29.97 in 10.0 mi SSE 11.5 mph - N/A   Scattered Clouds
4:53 PM 82.0 °F 86.3 °F 71.1 °F 69% 29.96 in 7.0 mi SSW 18.4 mph - 0.04 in Rain , Thunderstorm Light Rain
5:00 PM 78.8 °F - 73.4 °F 83% 29.97 in 2.0 mi SW 10.4 mph - 0.04 in Rain , Thunderstorm Heavy Rain
5:15 PM 75.2 °F - 71.6 °F 89% 30.01 in 2.0 mi NNW 17.3 mph 24.2 mph 0.15 in Rain , Thunderstorm Light Rain
5:22 PM 73.4 °F - 71.6 °F 94% 30.02 in 2.0 mi NNW 12.7 mph 27.6 mph 0.29 in Rain , Thunderstorm Heavy Rain
5:26 PM 73.4 °F - 71.6 °F 94% 30.02 in 2.0 mi North 20.7 mph 27.6 mph 0.41 in Rain , Thunderstorm Heavy Rain
5:34 PM 71.6 °F - 71.6 °F 100% 30.01 in 1.0 mi NNE 19.6 mph 26.5 mph 0.55 in Rain , Thunderstorm Heavy Rain
5:43 PM 71.6 °F - 71.6 °F 100% 30.01 in 6.0 mi North 15.0 mph - 0.58 in Rain , Thunderstorm Thunderstorms and Rain
5:53 PM 72.0 °F - 70.0 °F 93% 30.00 in 7.0 mi North 16.1 mph - 0.62 in Rain , Thunderstorm Light Thunderstorms and Rain
6:00 PM 71.6 °F - 69.8 °F 94% 30.00 in 6.0 mi NNE 13.8 mph - 0.07 in Rain , Thunderstorm Heavy Rain
6:25 PM 73.4 °F - 69.8 °F 88% 30.00 in 10.0 mi NNE 11.5 mph - 0.19 in   Overcast
6:45 PM 73.4 °F - 71.6 °F 94% 30.02 in 10.0 mi NNE 11.5 mph - 0.19 in   Overcast
6:53 PM 73.9 °F - 71.1 °F 91% 30.02 in 10.0 mi NE 11.5 mph - 0.19 in   Overcast
7:53 PM 73.0 °F - 70.0 °F 90% 30.03 in 10.0 mi ENE 8.1 mph - N/A   Clear
8:53 PM 73.9 °F - 69.1 °F 85% 30.04 in 10.0 mi Calm Calm - N/A   Clear
9:53 PM 73.9 °F - 70.0 °F 87% 30.08 in 10.0 mi North 3.5 mph - N/A   Clear
10:53 PM 75.0 °F - 72.0 °F 90% 30.09 in 10.0 mi Calm Calm - N/A   Clear
11:45 PM 75.2 °F - 71.6 °F 89% 30.09 in 10.0 mi WNW 6.9 mph - N/A   Mostly Cloudy
11:53 PM 75.0 °F - 72.0 °F 90% 30.09 in 10.0 mi WNW 5.8 mph - N/A   Mostly Cloudy